Wind_Speed
13 17 16 14 6 8 16 18 21 24 2 4 9 10 13 11 14 13 29 26 38 35 36 31 28 25 26 28 27 25 22 22 21 20 20 21 19 19 18 17 15 14 13 12 11 12 14 15 16
15 19 14 7 9 13 14 20 24 22 15 10 6 9 11 22 14 16 15 39 32 37 37 33 29 26 27 29 28 26 24 23 22 21 20 21 20 18 17 15 14 13 12 11 12 13 14 15 15
15 14 8 7 13 16 16 24 22 6 11 4 1 5 4 14 18 17 24 36 33 32 33 34 30 28 27 29 28 26 24 23 22 22 21 20 19 18 16 14 13 13 12 13 13 13 14 14 14
11 12 7 11 20 21 26 23 5 9 9 2 7 7 8 18 15 18 33 35 35 32 28 34 30 28 27 29 28 26 24 24 23 22 21 21 19 17 16 14 13 12 12 13 13 14 14 13 13
21 7 13 17 22 23 22 24 6 1 5 2 5 12 13 15 27 29 33 33 34 32 28 36 31 28 27 28 28 27 25 24 23 22 21 21 19 17 16 14 13 13 13 13 13 13 13 12 12
10 11 15 17 24 23 22 25 10 3 6 7 7 14 9 16 28 29 29 30 31 32 29 35 32 29 27 27 28 27 26 25 24 22 22 21 19 17 16 14 13 13 13 12 13 13 14 13 12
15 13 19 22 23 22 24 21 7 7 9 13 8 5 9 15 24 31 29 28 30 29 29 35 32 29 27 27 28 27 27 26 24 23 22 20 18 17 16 14 13 13 13 12 13 13 13 12 11
13 13 24 23 20 25 23 16 13 10 14 8 3 1 11 18 25 29 30 28 29 29 29 35 33 31 28 27 27 28 27 26 25 23 22 20 18 17 16 15 14 13 13 13 13 13 12 12 10
17 15 18 27 26 20 23 7 8 5 15 5 5 10 12 20 24 26 27 26 27 28 29 31 31 31 29 28 28 27 27 26 24 23 21 20 18 17 17 15 14 14 13 13 13 13 12 11 10
17 14 28 22 22 22 24 19 11 12 14 10 6 10 10 17 22 21 23 24 25 26 28 30 29 31 29 24 28 28 27 26 25 24 23 21 16 17 14 14 14 14 14 13 13 13 12 12 9
17 25 21 23 25 25 24 21 7 14 17 15 13 12 11 15 19 19 22 25 26 26 27 28 30 31 31 26 28 28 26 26 25 22 22 21 18 15 17 18 17 16 16 16 15 15 15 13 12
21 27 24 24 24 21 22 17 19 11 14 12 16 18 15 16 15 16 21 26 28 29 29 30 30 32 32 27 29 27 25 25 26 24 23 23 21 21 21 20 19 19 19 16 15 15 15 12 10
25 28 23 24 23 22 21 19 16 19 20 15 14 9 10 9 16 22 25 27 29 29 31 34 33 33 35 28 30 29 28 30 28 28 27 26 24 23 24 22 19 20 19 19 19 15 13 13 15
27 24 24 22 23 24 21 20 14 20 19 20 16 15 10 11 13 19 27 27 32 33 33 35 35 35 35 30 32 33 31 31 29 30 30 29 27 23 25 23 23 21 22 18 21 17 20 15 16
27 28 25 24 23 25 21 22 26 20 20 21 21 19 16 16 18 15 23 29 33 37 36 38 37 36 36 34 30 33 31 29 31 29 31 32 29 26 27 26 22 24 24 22 22 20 18 18 16
27 26 24 25 26 26 22 27 28 20 21 24 22 18 19 19 19 25 25 27 29 35 39 40 37 37 36 37 28 29 27 30 31 29 30 34 34 27 27 25 25 23 23 22 21 20 20 18 19
22 22 29 29 26 21 23 34 27 16 19 25 23 21 18 17 21 26 26 24 30 31 40 42 40 38 38 35 32 28 32 29 27 31 28 32 34 34 24 28 26 25 23 22 23 22 21 21 20
25 30 26 29 28 25 26 27 24 19 14 19 24 21 21 20 21 23 24 23 26 30 37 44 41 36 36 32 31 28 28 28 33 26 32 29 34 35 35 28 26 27 26 25 24 22 23 22 20
27 27 31 24 22 28 25 27 24 20 21 21 20 16 11 17 21 23 23 30 25 31 28 42 40 38 35 32 32 29 31 29 29 32 28 32 35 35 36 30 31 28 31 28 26 26 23 24 18
29 29 30 24 24 22 25 31 26 22 24 20 18 15 14 16 15 18 25 25 27 25 29 39 40 41 37 32 31 29 29 29 31 31 32 34 34 37 35 36 32 34 30 31 29 30 26 23 23
27 27 24 26 22 22 19 29 25 26 19 19 20 16 16 16 13 9 12 17 26 21 11 34 40 42 40 35 29 28 25 26 28 33 34 34 35 36 39 37 36 32 34 34 36 32 32 24 25
25 23 25 24 21 18 1 16 21 20 18 19 19 18 13 11 11 13 10 6 18 20 18 16 32 36 39 39 34 30 29 27 31 32 32 34 38 38 37 38 38 36 37 35 36 34 33 28 22
24 22 24 20 21 17 20 13 17 18 20 22 18 14 12 11 13 15 14 10 23 24 22 24 21 24 34 40 36 35 31 31 29 28 30 34 35 40 39 39 38 40 36 38 35 36 36 36 27
27 24 24 17 10 14 21 14 13 17 20 26 22 25 24 20 20 17 16 15 8 11 26 28 29 28 26 29 39 37 31 31 28 28 29 31 33 38 40 40 42 39 39 37 41 39 39 36 32
17 19 9 4 5 6 20 16 19 14 20 22 19 7 13 21 18 13 10 1 6 12 14 11 28 27 31 34 32 36 36 34 33 28 28 31 31 32 39 43 40 41 42 37 36 37 39 40 35
18 17 8 11 5 16 18 19 22 22 21 21 6 9 10 9 9 9 6 5 9 17 20 17 14 7 22 27 32 32 29 31 31 33 28 31 29 34 34 41 39 39 38 40 37 38 36 36 36
16 18 19 17 7 5 7 10 24 18 20 26 18 10 11 11 7 12 12 13 16 15 17 20 19 16 14 12 23 30 37 31 30 32 31 34 28 33 31 35 41 38 39 39 39 36 37 35 36
2 6 5 5 6 10 7 15 11 8 11 17 10 14 12 10 9 9 8 9 14 16 16 16 16 16 18 19 16 12 33 33 30 28 32 28 32 24 32 38 38 37 37 38 39 36 35 35 34
4 2 5 4 3 5 5 11 11 11 13 17 17 14 11 9 8 7 6 9 11 12 15 13 11 14 15 15 15 16 13 13 22 27 30 28 33 33 29 32 37 34 35 37 37 35 34 35 32
11 7 3 4 4 3 4 4 14 14 14 14 13 11 8 7 5 5 6 6 7 6 7 11 12 12 16 16 16 14 12 12 11 15 21 25 26 26 28 30 34 33 33 34 36 37 38 40 37
Wind_Direction
290 283 258 259 250 232 260 254 250 271 18 18 22 337 350 90 1 116 144 134 143 151 156 159 159 161 166 167 167 168 165 161 157 154 149 148 144 138 137 135 134 134 136 133 128 127 126 125 122
296 293 260 272 241 246 250 240 258 250 93 65 15 311 301 97 128 127 117 128 145 153 155 160 161 162 166 168 169 169 168 166 162 159 156 155 153 147 143 142 142 141 140 139 137 134 132 131 127
286 275 273 238 238 242 254 248 233 150 89 95 198 222 289 101 120 130 132 134 140 151 154 161 163 163 166 169 171 171 170 170 168 165 162 161 160 156 153 150 147 145 145 144 143 142 140 138 133
259 243 247 261 248 233 248 271 32 60 95 94 249 168 90 93 128 127 143 138 143 149 155 162 164 164 167 170 173 174 174 173 172 170 168 166 165 162 160 156 152 149 148 148 149 147 145 144 141
249 261 246 247 242 254 260 250 95 358 352 124 273 254 121 96 107 134 144 142 147 151 166 164 166 167 168 173 177 177 176 177 176 174 173 171 170 167 165 162 158 157 157 159 155 152 151 150 150
256 233 250 247 247 251 250 265 130 194 273 223 234 266 95 126 127 141 145 145 149 152 165 166 168 169 171 175 179 180 179 179 180 179 177 175 174 171 169 168 166 166 168 167 162 160 161 160 159
245 251 245 251 261 256 244 248 220 196 242 233 214 288 126 147 139 145 146 148 150 157 161 167 168 172 174 178 181 182 182 181 182 181 180 179 178 176 175 175 175 177 175 175 172 170 171 173 177
253 247 258 254 251 258 262 235 175 209 229 78 124 331 169 130 146 147 145 149 151 153 164 168 169 172 175 178 181 182 183 184 184 183 183 183 181 181 183 182 183 185 182 183 182 181 183 187 193
254 261 247 245 251 256 267 230 151 220 249 178 195 77 97 134 146 146 146 147 144 147 166 168 171 172 174 177 180 183 185 186 185 185 186 184 185 186 190 187 192 191 191 192 191 192 195 202 208
234 242 243 247 255 261 273 272 193 220 232 250 174 103 145 161 156 160 161 159 158 154 162 170 171 173 173 172 182 184 186 187 186 187 188 187 183 194 198 194 199 201 197 198 200 203 205 208 216
250 239 243 250 261 274 270 304 202 228 215 225 203 159 170 176 170 174 175 174 169 165 166 174 174 174 172 173 186 182 186 187 187 191 196 184 182 198 191 200 202 205 202 201 204 208 211 214 201
229 252 253 248 265 275 276 272 292 263 263 241 228 164 166 180 186 183 185 178 176 176 173 176 178 176 177 176 186 178 180 183 188 192 200 186 191 196 191 202 209 208 208 200 212 215 217 212 219
233 237 239 262 268 270 276 278 258 275 279 252 272 171 154 197 191 197 194 189 182 178 177 178 180 180 183 179 182 181 185 185 187 192 197 193 196 201 192 200 198 206 207 200 212 210 220 213 226
239 244 246 236 241 261 261 266 260 255 273 282 275 251 217 198 246 203 196 200 184 180 182 178 183 183 186 190 183 185 190 188 189 193 195 201 201 204 196 202 195 201 204 206 205 209 217 213 219
245 250 242 240 239 234 258 251 246 246 255 257 258 262 247 232 216 238 207 202 191 181 181 179 182 185 188 195 192 188 195 191 190 195 196 201 200 206 197 206 204 202 203 205 203 208 214 211 221
248 239 247 236 228 234 238 247 239 236 241 252 249 236 243 244 241 228 228 206 208 181 178 178 183 185 188 196 196 190 194 198 193 196 202 203 203 206 204 205 212 208 207 206 201 207 211 216 220
234 238 228 239 232 219 223 244 252 242 243 228 237 240 242 237 223 227 208 218 209 195 177 176 183 188 187 192 199 195 198 200 200 199 203 202 203 204 208 205 213 211 213 205 204 209 212 213 224
219 223 231 227 226 222 223 239 250 254 263 248 234 225 233 235 244 216 217 210 208 217 178 175 179 186 190 189 195 201 199 203 205 205 202 205 202 204 208 210 211 211 212 208 207 212 213 221 232
235 232 230 243 235 224 239 234 229 222 255 259 230 236 265 240 218 236 216 205 217 203 190 173 176 182 187 192 191 198 203 200 203 208 207 206 203 201 205 211 211 213 206 208 211 210 216 219 229
242 237 245 240 235 245 229 234 228 218 219 236 254 196 240 260 242 220 222 203 200 204 204 174 175 179 186 196 198 199 201 205 205 207 210 209 207 202 203 208 211 212 207 207 210 209 212 220 214
236 245 243 254 255 250 229 258 240 215 222 244 229 241 216 240 265 256 215 203 188 197 193 179 178 179 185 193 201 199 208 206 208 209 211 210 208 207 204 209 210 212 209 207 209 211 206 208 212
244 250 247 252 252 247 41 260 246 224 217 230 243 242 212 233 272 283 281 201 179 183 193 191 189 184 186 189 195 200 202 206 207 208 207 207 209 209 209 210 212 212 210 210 209 209 206 206 200
248 253 260 262 247 264 252 243 249 234 225 236 227 231 218 211 250 267 271 269 173 188 204 212 217 184 192 192 197 201 211 214 213 209 209 208 210 210 210 212 213 214 215 211 209 206 208 206 202
230 235 253 260 291 260 225 237 243 240 231 225 221 222 223 201 207 223 249 260 307 179 194 198 206 218 219 207 202 205 208 215 212 211 210 204 207 208 209 212 212 214 214 215 210 211 207 205 205
230 236 223 258 222 235 237 223 239 248 262 279 287 297 8 200 197 204 219 261 9 323 311 206 204 208 214 219 223 212 213 217 222 221 214 210 206 206 208 210 212 212 214 216 211 211 207 207 204
215 216 234 210 221 240 226 230 234 236 267 270 340 61 60 20 65 62 57 37 12 16 4 3 350 257 211 217 223 229 219 217 220 225 227 228 214 212 213 210 212 214 215 214 216 211 210 206 205
259 235 217 253 275 305 269 246 242 240 224 247 251 142 62 61 61 51 51 44 27 6 352 354 350 342 316 288 246 226 223 224 222 226 226 227 229 219 219 217 211 214 214 215 215 214 213 209 204
164 7 255 162 215 232 240 233 243 250 271 232 112 86 83 76 59 55 47 57 42 23 6 358 342 323 309 306 308 307 216 224 225 222 226 227 230 227 219 220 213 213 215 216 215 215 214 209 204
13 95 342 4 278 251 228 210 88 48 32 63 70 69 63 62 70 69 50 35 41 23 7 353 347 334 325 318 301 300 299 235 219 226 227 233 230 231 233 223 213 211 215 217 214 213 213 207 201
68 17 61 341 34 353 332 261 60 50 64 64 64 46 53 32 36 40 77 56 44 34 18 348 351 359 351 341 330 315 306 297 286 242 231 231 232 228 232 229 214 210 214 220 216 213 209 202 191
Height
767 766 764 761 775 758 753 738 706 701 697 682 687 695 702 709 728 750 723 726 733 742 750 757 763 768 773 778 782 787 791 795 798 801 804 807 810 812 814 816 819 821 823 825 827 828 829 830 832
766 763 759 755 773 770 747 716 714 693 687 690 696 700 699 721 711 718 721 726 736 743 750 756 762 768 773 778 783 787 792 796 799 802 805 808 811 814 816 818 821 823 825 827 828 830 832 833 834
765 764 761 760 760 762 744 701 694 683 684 695 704 698 696 713 709 715 722 728 739 745 751 756 762 767 774 779 784 789 792 797 800 803 806 809 812 815 818 820 822 824 826 828 830 832 834 836 837
763 756 754 762 755 733 726 702 688 693 691 693 697 709 700 701 707 714 724 732 740 747 753 757 763 769 774 779 784 789 793 797 801 804 807 810 813 816 818 821 823 826 828 830 832 834 836 838 839
758 754 762 755 745 728 705 691 688 700 698 699 699 707 707 706 709 719 726 733 740 748 753 758 763 769 775 780 785 789 793 798 802 805 808 811 813 816 819 821 824 826 829 831 833 835 837 839 840
758 751 767 756 741 719 703 688 691 702 700 703 708 706 713 710 712 723 730 736 742 746 752 758 764 770 775 780 785 789 793 798 802 805 809 811 814 816 819 822 824 827 829 832 834 835 837 839 841
759 757 756 748 736 718 702 681 693 701 707 707 697 714 712 711 717 721 731 738 743 746 752 758 764 770 775 780 785 790 794 798 802 806 809 812 814 817 819 822 825 827 830 832 834 836 838 840 841
750 752 755 738 736 725 691 682 685 699 708 695 696 715 716 710 719 724 731 739 745 748 753 758 764 769 775 780 785 790 794 798 802 806 809 812 815 817 820 822 825 827 830 833 835 836 838 839 841
749 760 750 740 733 718 689 695 688 691 701 698 696 705 712 715 720 726 732 740 745 750 754 759 763 768 774 779 784 790 794 798 802 806 809 812 815 817 820 823 825 827 830 832 834 836 838 839 840
751 755 737 726 716 714 698 693 694 702 704 704 705 707 713 716 720 725 730 736 743 749 753 758 763 767 773 778 783 788 793 797 801 804 808 811 815 817 820 822 825 827 829 832 834 835 837 838 839
746 740 730 724 714 706 702 699 688 703 712 706 706 709 712 716 719 723 728 734 739 746 753 758 762 766 771 777 780 786 790 795 799 803 806 810 814 817 820 821 823 825 827 829 831 833 835 836 838
750 731 724 720 713 710 709 700 702 699 701 693 692 696 706 714 717 720 724 729 736 743 749 755 760 764 769 774 777 783 787 792 796 800 804 808 812 814 817 818 821 823 825 827 829 831 834 836 837
734 724 725 722 717 712 710 709 709 708 698 694 693 697 704 708 712 717 721 725 731 738 744 750 756 761 766 770 774 780 784 787 791 796 800 804 808 810 813 816 817 820 823 825 827 830 832 834 835
720 719 717 715 716 713 715 713 714 707 702 701 696 698 700 705 708 709 714 719 723 731 738 745 751 757 762 766 769 774 779 783 787 791 794 799 803 807 809 813 814 817 820 822 825 827 829 831 833
718 723 713 709 708 713 711 721 716 706 708 706 703 698 698 699 703 704 705 710 715 720 730 738 745 752 756 761 766 770 775 779 783 787 790 794 799 803 805 809 811 813 816 818 821 824 827 829 831
721 717 723 700 702 704 712 717 700 702 709 708 701 698 698 697 698 699 701 703 707 713 721 731 739 745 751 756 762 766 770 774 778 782 785 788 794 799 802 805 808 810 813 816 818 821 823 826 828
716 719 714 707 692 700 706 702 689 695 696 702 698 694 693 692 690 691 692 696 702 706 711 721 732 739 744 751 757 761 766 769 773 777 781 784 788 793 797 801 804 807 809 811 814 816 819 822 824
714 711 698 695 689 691 700 697 692 691 691 693 689 685 687 687 684 682 687 690 695 700 704 713 723 733 741 747 753 758 761 765 768 771 774 779 782 786 792 796 799 802 805 807 810 813 816 818 820
703 696 697 686 680 689 690 686 686 688 690 689 680 681 682 678 675 678 680 684 689 694 699 706 716 725 736 742 745 750 753 757 762 765 769 773 776 780 785 789 793 796 797 801 805 809 811 813 816
699 699 689 679 675 679 678 676 669 673 680 679 677 678 681 677 670 671 674 677 681 687 694 701 709 717 726 736 739 743 748 752 756 760 762 765 769 773 777 782 786 789 792 795 798 801 805 808 810
696 697 692 690 675 667 672 675 664 659 665 668 667 667 671 673 671 666 667 670 675 682 690 698 703 708 717 727 736 740 746 750 752 752 755 758 763 766 770 774 778 782 785 786 790 793 797 800 804
699 687 686 685 686 693 685 703 667 658 666 668 667 666 667 668 666 667 666 668 673 678 684 694 700 704 709 718 726 731 734 737 739 743 747 751 755 759 763 768 771 774 776 779 781 786 789 794 796
695 690 688 682 685 686 689 697 675 662 672 668 662 661 661 664 667 668 668 667 671 677 681 688 694 702 708 710 716 722 727 730 733 737 741 745 748 752 756 760 764 767 769 771 774 778 781 784 788
681 691 688 691 714 709 698 708 693 673 659 657 651 650 651 656 662 665 665 667 670 676 681 683 688 696 703 708 710 712 717 723 726 728 732 736 739 742 747 750 753 757 762 763 765 768 772 775 779
694 690 714 727 730 719 684 697 689 660 652 650 651 649 649 642 653 658 662 666 670 675 680 686 688 690 692 697 702 706 710 715 718 721 724 727 730 733 735 739 744 747 750 756 759 762 764 767 770
683 699 714 719 717 697 677 687 666 658 651 649 647 648 653 657 658 662 666 670 675 680 681 684 687 688 691 695 698 701 705 708 711 715 718 720 721 723 727 731 736 740 745 749 752 754 756 759 764
688 687 689 706 702 719 682 666 655 646 648 647 648 651 662 665 665 671 676 682 684 686 688 689 691 691 692 693 696 695 698 701 704 708 711 714 715 717 721 724 728 732 736 741 745 747 750 753 756
696 695 706 714 717 720 701 685 676 657 659 645 653 662 669 672 676 680 684 688 691 693 693 694 695 695 693 692 693 693 691 695 698 701 704 706 710 712 714 718 720 725 729 734 737 740 744 746 749
708 710 726 715 719 710 708 681 671 677 671 671 671 676 682 684 684 686 690 692 694 697 698 700 702 700 697 695 693 692 692 693 694 695 699 701 703 706 708 711 714 718 723 727 730 732 736 740 743
728 734 736 746 739 737 726 699 671 680 682 680 685 686 690 691 691 690 692 694 698 701 704 705 705 702 700 698 695 692 690 692 691 693 694 697 699 701 703 705 707 712 716 720 722 723 726 730 734